RYR142H LICJ-LIPX

Flight info

Callsign RYR142H
Flight time 1h 20m
Altitude 38000
Route LURON DCT LOMED DCT IPLUB DCT NIGSO DCT LUPOS DCT RIPDU L995 OSBUL
Aircraft B738/M-SDE3FGILRWY/SB1

Departure

Time 2026-04-30 18:48
Airport Falcone–Borsellino Airport (LICJ)

Arrival

Time 2026-04-30 20:08
Airport Verona Villafranca Valerio Catullo Airport (LIPX)
Time Latitude Longitude Altitude Speed Heading
2026-04-30 18:05 38.18531 13.10560 52 ft 0 kts 338°
2026-04-30 18:19 38.18530 13.10560 52 ft 0 kts 338°
2026-04-30 18:19 38.18531 13.10560 52 ft 0 kts 338°
2026-04-30 18:39 38.18528 13.10561 52 ft 2 kts 338°
2026-04-30 18:40 38.18507 13.10573 49 ft 3 kts 337°
2026-04-30 18:40 38.18489 13.10582 47 ft 3 kts 334°
2026-04-30 18:40 38.18472 13.10597 46 ft 3 kts 290°
2026-04-30 18:40 38.18473 13.10619 47 ft 3 kts 247°
2026-04-30 18:41 38.18479 13.10639 47 ft 0 kts 247°
2026-04-30 18:45 38.17955 13.09595 50 ft 24 kts 247°
2026-04-30 18:45 38.17892 13.09406 52 ft 23 kts 247°
2026-04-30 18:45 38.17830 13.09223 52 ft 22 kts 246°
2026-04-30 18:46 38.17786 13.09092 49 ft 14 kts 246°
2026-04-30 18:46 38.17749 13.08984 51 ft 13 kts 246°
2026-04-30 18:46 38.17689 13.08904 52 ft 13 kts 217°
2026-04-30 18:46 38.17620 13.08837 52 ft 12 kts 217°
2026-04-30 18:47 38.17552 13.08771 52 ft 12 kts 217°
2026-04-30 18:47 38.17481 13.08763 52 ft 8 kts 144°
2026-04-30 18:47 38.17489 13.08824 49 ft 12 kts 68°
2026-04-30 18:47 38.17610 13.09180 52 ft 78 kts 67°
2026-04-30 18:48 38.17904 13.10050 50 ft 134 kts 65°
2026-04-30 18:48 38.18316 13.11259 374 ft 154 kts 66°
2026-04-30 18:48 38.18724 13.12503 1064 ft 154 kts 68°
2026-04-30 18:48 38.19147 13.13751 1680 ft 162 kts 67°
2026-04-30 18:49 38.19640 13.15177 1944 ft 189 kts 67°
2026-04-30 18:49 38.20193 13.16756 2348 ft 201 kts 67°
2026-04-30 18:49 38.20832 13.18373 2848 ft 209 kts 54°
2026-04-30 18:49 38.21821 13.19725 3538 ft 210 kts 47°
2026-04-30 18:50 38.23079 13.20853 3817 ft 237 kts 25°
2026-04-30 18:50 38.24681 13.21665 4195 ft 254 kts 24°
2026-04-30 18:50 38.26339 13.22517 4867 ft 261 kts 23°
2026-04-30 18:50 38.28018 13.23387 5619 ft 261 kts 22°
2026-04-30 18:51 38.29698 13.24266 6246 ft 269 kts 21°
2026-04-30 18:51 38.31456 13.25192 6867 ft 274 kts 20°
2026-04-30 18:51 38.33223 13.26128 7657 ft 274 kts 20°
2026-04-30 18:51 38.34996 13.27071 8408 ft 277 kts 20°
2026-04-30 18:52 38.36798 13.28031 9173 ft 281 kts 20°
2026-04-30 18:52 38.38589 13.28985 9955 ft 284 kts 20°
2026-04-30 18:52 38.40445 13.29938 10514 ft 293 kts 14°
2026-04-30 18:52 38.42528 13.30087 10681 ft 311 kts 347°
2026-04-30 18:53 38.44680 13.29319 10893 ft 331 kts 340°
2026-04-30 18:53 38.46148 13.28694 11182 ft 338 kts 339°
2026-04-30 18:53 38.48394 13.27703 11848 ft 342 kts 339°
2026-04-30 18:53 38.51383 13.26383 12894 ft 344 kts 339°
2026-04-30 18:54 38.53656 13.25390 13673 ft 347 kts 339°
2026-04-30 18:54 38.55211 13.24717 14161 ft 349 kts 339°
2026-04-30 18:54 38.57499 13.23731 14853 ft 352 kts 339°
2026-04-30 18:54 38.59839 13.22729 15593 ft 355 kts 339°
2026-04-30 18:55 38.62190 13.21724 16304 ft 358 kts 338°
2026-04-30 18:55 38.66966 13.19684 17678 ft 365 kts 338°
2026-04-30 18:55 38.69396 13.18646 18359 ft 369 kts 338°
2026-04-30 18:56 38.74279 13.16559 19584 ft 373 kts 338°
2026-04-30 18:56 38.76755 13.15500 20209 ft 375 kts 337°
2026-04-30 18:56 38.79245 13.14433 20803 ft 378 kts 337°
2026-04-30 18:57 38.84261 13.12282 21918 ft 384 kts 337°
2026-04-30 18:57 38.86808 13.11197 22466 ft 388 kts 337°
2026-04-30 18:57 38.89398 13.10175 23027 ft 391 kts 338°
2026-04-30 18:58 38.94663 13.08213 24032 ft 396 kts 339°
2026-04-30 18:58 38.97324 13.07229 24474 ft 398 kts 338°
2026-04-30 18:58 38.99999 13.06234 24925 ft 400 kts 338°
2026-04-30 18:59 39.05343 13.04230 25786 ft 404 kts 338°
2026-04-30 19:00 39.13508 13.01141 27079 ft 409 kts 338°
2026-04-30 19:00 39.16251 13.00098 27470 ft 412 kts 338°
2026-04-30 19:00 39.21776 12.97996 28225 ft 416 kts 338°
2026-04-30 19:01 39.27339 12.95877 28947 ft 420 kts 338°
2026-04-30 19:01 39.30159 12.94802 29280 ft 422 kts 338°
2026-04-30 19:02 39.35790 12.92652 30036 ft 425 kts 337°
2026-04-30 19:02 39.41429 12.90501 30993 ft 418 kts 337°
2026-04-30 19:03 39.46999 12.88371 31811 ft 415 kts 336°
2026-04-30 19:03 39.52499 12.86260 32609 ft 412 kts 336°
2026-04-30 19:04 39.57970 12.84160 33591 ft 406 kts 335°
2026-04-30 19:04 39.63369 12.82081 34300 ft 404 kts 335°
2026-04-30 19:05 39.68768 12.79995 34826 ft 404 kts 335°
2026-04-30 19:05 39.74152 12.77914 35394 ft 403 kts 335°
2026-04-30 19:06 39.79501 12.75843 35927 ft 403 kts 335°
2026-04-30 19:06 39.82187 12.74803 36218 ft 402 kts 336°
2026-04-30 19:06 39.87552 12.72722 36696 ft 402 kts 336°
2026-04-30 19:07 39.92923 12.70635 37199 ft 402 kts 336°
2026-04-30 19:07 39.95585 12.69600 37407 ft 402 kts 336°
2026-04-30 19:08 40.00964 12.67504 37858 ft 402 kts 336°
2026-04-30 19:08 40.06342 12.65406 38106 ft 406 kts 336°
2026-04-30 19:09 40.14412 12.62253 38129 ft 401 kts 336°
2026-04-30 19:09 40.19757 12.60162 38128 ft 399 kts 336°
2026-04-30 19:10 40.30332 12.56009 38137 ft 396 kts 336°
2026-04-30 19:11 40.38263 12.52883 38139 ft 397 kts 336°
2026-04-30 19:12 40.43568 12.50789 38141 ft 398 kts 336°
2026-04-30 19:12 40.48872 12.48691 38144 ft 400 kts 336°
2026-04-30 19:13 40.59613 12.44435 38140 ft 404 kts 336°
2026-04-30 19:14 40.64983 12.42302 38138 ft 405 kts 336°
2026-04-30 19:14 40.70405 12.40145 38131 ft 407 kts 336°
2026-04-30 19:15 40.75800 12.37995 38141 ft 408 kts 336°
2026-04-30 19:15 40.83964 12.34735 38144 ft 408 kts 336°
2026-04-30 19:16 40.89400 12.32559 38141 ft 407 kts 336°
2026-04-30 19:17 40.97511 12.29306 38144 ft 407 kts 337°
2026-04-30 19:17 41.05662 12.26028 38138 ft 407 kts 337°
2026-04-30 19:18 41.13755 12.22765 38146 ft 406 kts 337°
2026-04-30 19:19 41.19178 12.20573 38138 ft 406 kts 337°
2026-04-30 19:19 41.27314 12.17278 38130 ft 407 kts 337°
2026-04-30 19:20 41.32704 12.15090 38128 ft 407 kts 337°
2026-04-30 19:21 41.40872 12.11767 38130 ft 409 kts 338°
2026-04-30 19:22 41.51754 12.07327 38120 ft 410 kts 338°
2026-04-30 19:23 41.68168 12.00601 38163 ft 412 kts 338°
2026-04-30 19:24 41.76362 11.97230 38197 ft 412 kts 338°
2026-04-30 19:25 41.90063 11.91573 38226 ft 412 kts 338°
2026-04-30 19:26 42.01025 11.87028 38210 ft 411 kts 338°
2026-04-30 19:27 42.09204 11.83626 38187 ft 412 kts 338°
2026-04-30 19:28 42.17438 11.80193 38154 ft 412 kts 338°
2026-04-30 19:29 42.28378 11.75616 38137 ft 413 kts 338°
2026-04-30 19:30 42.39361 11.71004 38140 ft 413 kts 338°
2026-04-30 19:31 42.50327 11.66382 38161 ft 413 kts 339°
2026-04-30 19:31 42.58574 11.62896 38169 ft 413 kts 339°
2026-04-30 19:32 42.64041 11.60579 38187 ft 413 kts 339°
2026-04-30 19:32 42.69531 11.58249 38186 ft 413 kts 339°
2026-04-30 19:33 42.75022 11.55913 38187 ft 413 kts 339°
2026-04-30 19:33 42.80507 11.53576 38191 ft 412 kts 339°
2026-04-30 19:34 42.85988 11.51236 38214 ft 412 kts 339°
2026-04-30 19:35 42.94186 11.47727 38221 ft 414 kts 339°
2026-04-30 19:35 42.99702 11.45362 38206 ft 415 kts 339°
2026-04-30 19:36 43.05222 11.42989 38197 ft 416 kts 339°
2026-04-30 19:36 43.13496 11.39425 38217 ft 418 kts 339°
2026-04-30 19:37 43.19057 11.37025 38214 ft 418 kts 339°
2026-04-30 19:37 43.24619 11.34619 38231 ft 419 kts 339°
2026-04-30 19:38 43.30144 11.32224 38229 ft 419 kts 340°
2026-04-30 19:38 43.35716 11.29805 38212 ft 419 kts 340°
2026-04-30 19:39 43.40340 11.27793 38221 ft 419 kts 340°
2026-04-30 19:39 43.45916 11.25363 38213 ft 419 kts 340°
2026-04-30 19:40 43.48724 11.24137 37752 ft 425 kts 340°
2026-04-30 19:40 43.51539 11.22906 37216 ft 422 kts 340°
2026-04-30 19:40 43.54334 11.21685 36686 ft 420 kts 340°
2026-04-30 19:40 43.57090 11.20480 36093 ft 419 kts 340°
2026-04-30 19:41 43.59869 11.19263 35483 ft 419 kts 340°
2026-04-30 19:41 43.62653 11.18041 34975 ft 417 kts 340°
2026-04-30 19:41 43.65406 11.16834 34552 ft 412 kts 340°
2026-04-30 19:41 43.68137 11.15634 34100 ft 408 kts 341°
2026-04-30 19:42 43.70803 11.14464 33609 ft 404 kts 341°
2026-04-30 19:42 43.73471 11.13289 33198 ft 398 kts 341°
2026-04-30 19:42 43.76104 11.12128 32754 ft 394 kts 341°
2026-04-30 19:42 43.78672 11.10995 32330 ft 390 kts 341°
2026-04-30 19:43 43.81241 11.09861 31921 ft 385 kts 341°
2026-04-30 19:43 43.83791 11.08734 31495 ft 381 kts 340°
2026-04-30 19:43 43.86307 11.07621 31083 ft 378 kts 340°
2026-04-30 19:44 43.91251 11.05431 30287 ft 371 kts 340°
2026-04-30 19:44 43.93695 11.04346 29830 ft 367 kts 341°
2026-04-30 19:44 43.96114 11.03273 29415 ft 362 kts 341°
2026-04-30 19:44 43.98494 11.02215 28996 ft 356 kts 341°
2026-04-30 19:45 44.00842 11.01173 28609 ft 351 kts 341°
2026-04-30 19:45 44.03101 10.99944 28203 ft 347 kts 333°
2026-04-30 19:45 44.05171 10.98274 27952 ft 341 kts 328°
2026-04-30 19:45 44.07169 10.96504 27680 ft 347 kts 328°
2026-04-30 19:46 44.09197 10.94700 27334 ft 343 kts 328°
2026-04-30 19:46 44.11206 10.92916 26915 ft 340 kts 328°
2026-04-30 19:46 44.13193 10.91158 26538 ft 338 kts 329°
2026-04-30 19:46 44.15182 10.89403 26140 ft 336 kts 329°
2026-04-30 19:47 44.17155 10.87663 25755 ft 334 kts 329°
2026-04-30 19:47 44.18460 10.86513 25490 ft 333 kts 329°
2026-04-30 19:47 44.21051 10.84230 24986 ft 331 kts 329°
2026-04-30 19:47 44.22996 10.82514 24606 ft 330 kts 329°
2026-04-30 19:48 44.24942 10.80822 24220 ft 327 kts 332°
2026-04-30 19:48 44.26978 10.79371 23808 ft 327 kts 335°
2026-04-30 19:48 44.29007 10.78025 23383 ft 326 kts 336°
2026-04-30 19:48 44.31051 10.76674 22971 ft 323 kts 336°
2026-04-30 19:49 44.33072 10.75325 22613 ft 320 kts 336°
2026-04-30 19:49 44.37063 10.72632 21871 ft 316 kts 335°
2026-04-30 19:49 44.39022 10.71241 21484 ft 315 kts 331°
2026-04-30 19:50 44.40804 10.69459 21114 ft 316 kts 323°
2026-04-30 19:50 44.42492 10.67480 20728 ft 315 kts 322°
2026-04-30 19:50 44.44140 10.65534 20364 ft 314 kts 323°
2026-04-30 19:50 44.45811 10.63573 20012 ft 312 kts 323°
2026-04-30 19:51 44.47478 10.61628 19660 ft 311 kts 323°
2026-04-30 19:51 44.49142 10.59690 19292 ft 310 kts 323°
2026-04-30 19:51 44.50822 10.57795 18944 ft 309 kts 327°
2026-04-30 19:51 44.52613 10.56136 18533 ft 308 kts 330°
2026-04-30 19:52 44.54423 10.54532 18139 ft 307 kts 330°
2026-04-30 19:52 44.56228 10.52930 17751 ft 306 kts 330°
2026-04-30 19:52 44.57997 10.51345 17399 ft 304 kts 330°
2026-04-30 19:52 44.59775 10.49742 17045 ft 303 kts 330°
2026-04-30 19:53 44.61545 10.48141 16694 ft 302 kts 330°
2026-04-30 19:53 44.63316 10.46537 16334 ft 301 kts 330°
2026-04-30 19:53 44.65077 10.44939 15971 ft 301 kts 330°
2026-04-30 19:53 44.66834 10.43344 15530 ft 302 kts 330°
2026-04-30 19:54 44.68636 10.41709 14875 ft 312 kts 330°
2026-04-30 19:54 44.70469 10.40043 14411 ft 315 kts 330°
2026-04-30 19:54 44.72279 10.38395 14066 ft 313 kts 330°
2026-04-30 19:54 44.74107 10.36730 13662 ft 312 kts 330°
2026-04-30 19:55 44.75926 10.35075 13263 ft 311 kts 330°
2026-04-30 19:55 44.77738 10.33426 12866 ft 310 kts 329°
2026-04-30 19:55 44.79551 10.31773 12408 ft 311 kts 329°
2026-04-30 19:55 44.81377 10.30129 12046 ft 310 kts 332°
2026-04-30 19:56 44.83356 10.28995 11624 ft 307 kts 349°
2026-04-30 19:56 44.85424 10.28465 11233 ft 306 kts 352°
2026-04-30 19:56 44.87524 10.27997 10861 ft 305 kts 353°
2026-04-30 19:56 44.89601 10.27532 10678 ft 297 kts 352°
2026-04-30 19:57 44.91622 10.27069 10532 ft 290 kts 352°
2026-04-30 19:57 44.93581 10.26610 10398 ft 281 kts 352°
2026-04-30 19:57 44.95488 10.26157 10263 ft 274 kts 352°
2026-04-30 19:57 44.97360 10.25710 9961 ft 273 kts 352°
2026-04-30 19:58 44.99227 10.25263 9676 ft 271 kts 352°
2026-04-30 19:58 45.01082 10.24817 9364 ft 269 kts 352°
2026-04-30 19:58 45.02923 10.24789 9071 ft 264 kts 17°
2026-04-30 19:58 45.04520 10.25973 8827 ft 259 kts 40°
2026-04-30 19:59 45.05656 10.27976 8342 ft 265 kts 62°
2026-04-30 19:59 45.06479 10.30280 8002 ft 266 kts 63°
2026-04-30 19:59 45.08101 10.34966 7441 ft 264 kts 64°
2026-04-30 20:00 45.08908 10.37296 7162 ft 263 kts 64°
2026-04-30 20:00 45.09714 10.39616 6890 ft 262 kts 64°
2026-04-30 20:00 45.10514 10.41913 6699 ft 257 kts 63°
2026-04-30 20:00 45.11295 10.44151 6577 ft 249 kts 63°
2026-04-30 20:01 45.12808 10.48489 6377 ft 247 kts 63°
2026-04-30 20:01 45.13572 10.50681 6280 ft 248 kts 64°
2026-04-30 20:01 45.14501 10.52757 6043 ft 254 kts 44°
2026-04-30 20:02 45.17094 10.55936 5584 ft 238 kts 46°
2026-04-30 20:02 45.18231 10.57590 5328 ft 230 kts 47°
2026-04-30 20:03 45.20378 10.60756 4862 ft 221 kts 48°
2026-04-30 20:03 45.21444 10.62323 4634 ft 220 kts 48°
2026-04-30 20:03 45.22512 10.63888 4398 ft 220 kts 48°
2026-04-30 20:03 45.23578 10.65451 4170 ft 220 kts 48°
2026-04-30 20:04 45.24641 10.67009 3938 ft 219 kts 49°
2026-04-30 20:04 45.25689 10.68544 3690 ft 213 kts 49°
2026-04-30 20:04 45.26695 10.70016 3464 ft 206 kts 49°
2026-04-30 20:05 45.28623 10.72840 3140 ft 196 kts 49°
2026-04-30 20:05 45.29569 10.74226 2889 ft 194 kts 49°
2026-04-30 20:05 45.31407 10.76914 2397 ft 187 kts 49°
2026-04-30 20:06 45.32306 10.78231 2132 ft 184 kts 49°
2026-04-30 20:06 45.33192 10.79526 1882 ft 181 kts 49°
2026-04-30 20:06 45.34061 10.80798 1643 ft 177 kts 49°
2026-04-30 20:06 45.34891 10.82011 1411 ft 165 kts 48°
2026-04-30 20:07 45.35648 10.83116 1188 ft 150 kts 48°
2026-04-30 20:07 45.36362 10.84163 963 ft 148 kts 48°
2026-04-30 20:07 45.37820 10.86289 543 ft 150 kts 46°
2026-04-30 20:08 45.38550 10.87359 331 ft 150 kts 47°
2026-04-30 20:08 45.39246 10.88380 233 ft 134 kts 46°
2026-04-30 20:08 45.39796 10.89183 239 ft 92 kts 46°
2026-04-30 20:08 45.40140 10.89682 245 ft 48 kts 45°
2026-04-30 20:09 45.40265 10.89875 246 ft 15 kts 62°
2026-04-30 20:09 45.40294 10.90011 245 ft 14 kts 77°
2026-04-30 20:09 45.40332 10.90243 241 ft 11 kts 82°
2026-04-30 20:10 45.40259 10.90377 241 ft 4 kts 136°
2026-04-30 20:10 45.40238 10.90406 241 ft 4 kts 136°
2026-04-30 20:10 45.40214 10.90433 241 ft 4 kts 165°
2026-04-30 20:11 45.40186 10.90429 241 ft 0 kts 183°